Other Public Products
Issued by NWS Grand Forks, ND

Home | Current Version | Previous Version | Graphics & Text | Print | Product List | Glossary On
Versions: 1 2 3 4 5 6 7 8 9 10 11 12 13 14 15 16 17 18 19 20 21 22 23 24 25 26 27 28 29 30 31 32 33 34 35 36 37 38 39 40 41 42 43 44 45 46 47 48 49 50
000
FPUS83 KFGF 170510
OPUFGF
PRAIRIE TO PINES WEATHER ROUNDUP
NATIONAL WEATHER SERVICE EASTERN NORTH DAKOTA/GRAND FORKS ND
1200 AM CDT WED SEP 17 2014

 **SATELLITE DATA USED TO AUGMENT SKY COVER AT AUTOMATED STATIONS**
 *****  WEATHER ACROSS EASTERN NORTH DAKOTA  *****

CITY           SKY/WX    TMP DP  RH WIND       PRES   REMARKS
GRAND FORKS    CLEAR     48  42  80 S6        29.90F
GRAND FORKS AF CLEAR     51  44  77 SW7       29.91F
GRAND CITY NWS   N/A     52 N/A N/A S2          N/A
BUXTON         NOT AVBL
DEVILS LAKE    CLEAR     54  39  58 S3        29.90F
FARGO          FAIR      57  46  66 SE9       29.91F
WAHPETON ARPT  PTCLDY    52  45  76 SE6       29.93S
$$

 *****  WEATHER ACROSS CENTRAL AND WESTERN NORTH DAKOTA  *****

CITY           SKY/WX    TMP DP  RH WIND       PRES   REMARKS
JAMESTOWN      CLEAR     47  44  90 CALM      29.91S
BISMARCK       CLEAR     53  46  77 NE6       29.93R
MINOT          CLEAR     52  45  77 SW9       29.91S
MINOT AFB      CLEAR     47  44  89 SW7       29.90F
GARRISON         N/A     48  43  82 N5        29.92S
WILLISTON      CLEAR     44  37  76 CALM      29.93R HAZE
DICKINSON      PTCLDY    49  43  80 S5        29.93S
HETTINGER      CLOUDY    49  44  83 CALM      29.95S
$$

 *****  OTHER OBSERVATIONS NORTHEAST NORTH DAKOTA  *****

CITY           SKY/WX    TMP DP  RH WIND       PRES   REMARKS
WALHALLA         N/A     50  45  81 CALM      29.89S
LANGDON        FAIR      45  37  76 SW6       29.91S HAZE
CAVALIER       FAIR      54  43  66 SW7       29.89S
GRAFTON        FAIR      50  43  76 SW6       29.89F
CANDO          FAIR      48  43  81 W3        29.92S
FORT TOTTEN      N/A     54  41  61 SE3       29.95
ROLLA          FAIR      45  43  93 SE8       29.92S
RUGBY          FAIR      46  45  93 SE6       29.91S
 ***** THE ABOVE OBSERVATIONS ARE NON NWS ARE NOT QUALITY
        CONTROLLED AND MAY MIS-REPORT RAIN FOR SNOW...
$$

 *****  OTHER OBSERVATIONS SOUTHEAST NORTH DAKOTA *****

CITY           SKY/WX    TMP DP  RH WIND       PRES   REMARKS
COOPERSTOWN    NOT AVBL
VALLEY CITY    FAIR      50  46  87 CALM      29.92S
OAKES            N/A     48  48 100 S6        29.92S
GWINNER        CLEAR     52  52 100 S7        29.92F
SHEYENNE NWR     N/A     52  48  85 E2        29.95S
BUFFALO        NOT AVBL
WYNDMERE         N/A     48  46  93 NW1         N/A
 ***** THE ABOVE OBSERVATIONS ARE NON NWS ARE NOT QUALITY
       CONTROLLED AND MAY MIS-REPORT RAIN FOR SNOW...
$$

  *****  WEATHER ACROSS NORTHERN MINNESOTA  *****

CITY           SKY/WX    TMP DP  RH WIND       PRES   REMARKS
FLAG ISLAND    CLOUDY    57  54  88 S6        29.84F
WARROAD        MOCLDY    54  46  76 SW6       29.88F
ROSEAU         PTCLDY    54  45  71 SW9       29.88F
HALLOCK        CLEAR     50  43  76 SW8       29.88F
THF RVR FALLS  CLEAR     50  41  71 S8        29.92F
HALSTAD          N/A     46  43  87 SE8         N/A
FOSSTON        CLEAR     45  39  81 S6        29.95S
BAUDETTE       CLOUDY    49  46  90 SW6       29.88F
WASKISH        PTCLDY    55  45  67 CALM      29.92S
CROOKSTON      CLEAR     54  45  71 S8        29.92F
$$
  *****  WEATHER ACROSS CENTRAL AND WEST MINNESOTA  *****

CITY           SKY/WX    TMP DP  RH WIND       PRES   REMARKS
BEMIDJI        CLEAR     49  40  72 S6        29.94F
PARK RAPIDS    CLEAR     50  42  74 SE6       29.96F
WADENA         CLOUDY    50  45  81 CALM      29.97S
DETROIT LAKES  CLEAR     54  46  76 SE6       29.96F
MOORHEAD       CLEAR     55  48  76 SE7       29.92F
FERGUS FALLS   CLEAR     55  45  67 SE7       29.94F
ELBOW LAKE     FAIR      52  46  80 SE5       29.94F
MORRIS MN      PTCLDY    54  48  82 SE6       29.94F
STAPLES        CLOUDY    48  45  87 CALM      29.98S
WHEATON        PTCLDY    52  48  87 SE9       29.94F
$$
  *****  WEATHER ELSEWHERE ACROSS MINNESOTA  *****

CITY           SKY/WX    TMP DP  RH WIND       PRES   REMARKS
DULUTH         PTCLDY    54  42  64 SW12      29.97F
INTRNTL FALLS  CLOUDY    52  48  86 S3        29.88F
ELY            MOCLDY    52  46  82 S3        29.94F
CLOQUET        PTCLDY    52  43  71 SW6       29.98F
BRAINERD       CLOUDY    46  44  93 CALM      29.99S
HIBBING        CLOUDY    51  43  74 CALM      29.96F
ALEXANDRIA     CLEAR     52  46  80 SE6       29.97F
SAINT CLOUD    PTCLDY    55  47  74 SE3       29.99S
MINNEAPOLIS    MOCLDY    57  45  64 SE5       30.00F
$$

  *****  WEATHER ACROSS SOUTH DAKOTA  *****

CITY           SKY/WX    TMP DP  RH WIND       PRES   REMARKS
SIOUX FALLS    CLOUDY    61  49  64 S7        29.96F
BROOKINGS      NOT AVBL
WATERTOWN      MOCLDY    57  50  77 SE7       29.94S
HURON          PTCLDY    58  52  80 S10       29.91S
SISSETON         N/A     55  53  93 S3        29.91F
ABERDEEN       CLEAR     50  49  96 E5        29.91S
MITCHELL       MOCLDY    57  52  83 SE10      29.92S
PIERRE         CLEAR     53  49  86 CALM      29.89R
MOBRIDGE       MOCLDY    54  51  90 E7        29.88S
RAPID CITY     CLEAR     55  46  71 NW3       29.96S
$$

  *****  SOME WEATHER IN NEARBY STATES *****

CITY           SKY/WX    TMP DP  RH WIND       PRES   REMARKS
GLASGOW MT     PTCLDY    57  42  57 E12       29.90R
GREAT FALLS MT CLOUDY    60  44  55 SW8       29.91R
CHEYENNE WY    MOCLDY    63  36  36 SW8       30.16S
SCOTTSBLUFF NE CLEAR     58  49  72 E8        30.02R
OMAHA NE       CLOUDY    64  50  60 S9        30.00F
DES MOINES IA  PTCLDY    56  49  77 SE7       30.05F
DAVENPORT IA   CLEAR     48  43  82 S3        30.09S
CHICAGO IL     CLEAR     55  47  74 CALM      30.09S
EAU CLAIRE WI  CLEAR     45  43  93 CALM      30.02F
LA CROSSE WI   CLEAR     50  47  89 SE6       30.05S
$$

  *****  SOME NATIONAL WEATHER *****

CITY           SKY/WX    TMP DP  RH WIND       PRES   REMARKS
LA GUARDIA NY  PTCLDY    64  51  62 N8        30.02S
RALEIGH NC     CLOUDY    70  66  87 N3        29.98S
ATLANTA GA     PTCLDY    73  67  81 NW5       30.00F
NEW ORLEANS LA CLOUDY    77  72  84 N7        30.01F
OKLAHOMA CITY  MOCLDY    74  67  78 SE6       30.02S
ALBUQUERQUE NM CLOUDY    63  55  75 CALM      30.24S
SALT LAKE CITY CLEAR     75  43  31 SE10      29.96F
LOS ANGELES CA PTCLDY    78  58  49 SE6       29.73R
BOISE ID       CLEAR     76  39  26 S6        29.82S
SEATTLE WA     CLOUDY    63  54  72 SE6       29.89S
$$

*** WEATHER ACROSS MANITOBA...SASKATCHEWAN AND ONTARIO ***
                ***ONTARIO***

CITY           SKY/WX    TMP DP  RH WIND       PRES   REMARKS
GERALDTON      CLOUDY    34  28  80 SE2       30.03S
THUNDER BAY    CLOUDY    46  41  81 E8        30.00F
SIOUX LOOKOUT  LGT RAIN  41  37  87 E5        29.95R
TORONTO        PTCLDY    50  45  81 W5        30.04F
BIG TROUT LK   CLOUDY    36  25  64 N6        30.05S
PICKLE LAKE    NOT AVBL
DRYDEN         LGT RAIN  45  41  87 NE8       29.90S
KENORA         CLOUDY    50  46  87 NE6       29.87F
$$
                *** MANITOBA***

CITY           SKY/WX    TMP DP  RH WIND       PRES   REMARKS
BRANDON        PTCLDY    48  45  87 SW8       29.88F
DAUPHIN        CLOUDY    48  45  87 E7        29.96R
ISLAND LAKE    PTCLDY    37  25  60 N6        30.09S
PILOT MOUND      N/A     46  39  76 S6          N/A
THE PAS        CLOUDY    36  34  93 E7        30.09S
THOMPSON       MOCLDY    27  25  93 W2        30.13R
WINNIPEG       PTCLDY    50  46  87 N12       29.89R
LYNN LAKE      CLEAR     28  21  74 N3        30.13S
CHURCHILL      CLOUDY    34  25  69 N16G24    30.07S WCI  23
GILLAM         CLOUDY    36  27  69 NW13      30.11R
$$
                ***SASKATCHEWAN***

CITY           SKY/WX    TMP DP  RH WIND       PRES   REMARKS
ESTEVAN        PTCLDY    50  43  76 S3        29.91S
KINDERSLEY     CLEAR     54  43  66 E9        29.88S
LLOYDMINSTER   PTCLDY    57  41  54 SE6       29.87S
PRINCE ALBERT  CLOUDY    39  37  93 E15       30.00R
REGINA         CLEAR     50  43  76 SE6       29.89R


USA.gov is the U.S. government's official web portal to all federal, state and local government web resources and services.